Flag for Norway Weather past 2 weeks in Elverum, Norway

Now
49 °F

Cool.


Feels Like: 49 °F
Forecast: 44 / 64 °F
Wind: 2 mph from Northwest

Location: Haugedalshogda

Current Time: Aug 31, 2014 at 8:41:32 AM

Latest Report: Aug 31, 2014 at 8:00 AM


Visibility: N/A

Pressure: 30.19 "Hg

Humidity: 81%

Dew point: 43 °F

Location of ElverumLocation

Historic Weather in Elverum — Graph

°F

Elverum temperature yesterday

Maximum temperature yesterday: 61 °F (at 1:00 PM)
Minimum temperature yesterday: 49 °F (at 1:00 AM)
Average temperature yesterday: 54 °F

Past Weeks' High & Low Weather Summary

 TemperatureHumidityPressure
High66 °F (Aug 21, 3:00 PM)95% (Aug 23, 5:00 AM)30.18 "Hg (Aug 23, 5:00 AM)
Low36 °F (Aug 29, 6:00 AM)38% (Aug 21, 3:00 PM)29.18 "Hg (Aug 18, 4:00 PM)
Average52 °F80%29.69 "Hg
* Reported Aug 16 7:00 AM — Aug 31 7:00 AM, Elverum, Weather by CustomWeather, © 2014

Note: Actual official high and low records may vary slightly from our data, if they occured in-between our weather recording intervals... More about our weather records

Advertising

Elverum weather history for previous 24 hours

 ConditionsComfort  
Time TempWeatherWind HumidityBarometerVisibility
7:00 AM
Aug 31
48 °FCool.2 mph81%30.18 "HgN/A
6:00 AM48 °FCool.2 mph86%30.17 "HgN/A
5:00 AM48 °FCool.2 mph87%30.16 "HgN/A
4:00 AM47 °FCool.1 mph87%30.16 "HgN/A
3:00 AM46 °FCool.1 mph90%30.16 "HgN/A
2:00 AM45 °FQuite cool.1 mph87%30.16 "HgN/A
1:00 AM43 °FQuite cool.1 mph85%30.15 "HgN/A
12:00 AM48 °FCool.1 mph72%30.14 "HgN/A
11:00 PM
Aug 30
49 °FCool.2 mph72%30.12 "HgN/A
10:00 PM53 °FCool.3 mph64%30.10 "HgN/A
9:00 PM54 °FCool.3 mph65%30.08 "HgN/A
8:00 PM55 °FCool.2 mph66%30.07 "HgN/A
7:00 PM57 °FCool.2 mph60%30.06 "HgN/A
6:00 PM58 °FRefreshingly cool.3 mph59%30.05 "HgN/A
5:00 PM60 °FRefreshingly cool.3 mph54%30.05 "HgN/A
4:00 PM60 °FRefreshingly cool.6 mph49%30.05 "HgN/A
3:00 PM60 °FRefreshingly cool.5 mph49%30.06 "HgN/A
2:00 PM60 °FRefreshingly cool.5 mph49%30.06 "HgN/A
1:00 PM61 °FRefreshingly cool.6 mph48%30.06 "HgN/A
12:00 PM60 °FRefreshingly cool.3 mph52%30.07 "HgN/A
11:00 AM56 °FRefreshingly cool.5 mph57%30.08 "HgN/A
10:00 AM54 °FCool.2 mph66%30.09 "HgN/A
9:00 AM52 °FCool.1 mph76%30.09 "HgN/A
8:00 AM51 °FCool.1 mph79%30.08 "HgN/A
Weather by CustomWeather, © 2014

See weather overviewHow to use our weather pages